Weather Roundup
Issued by NWS

Home | Current Version | Previous Version | Text Only | Print | Product List | Glossary On
Versions: 1 2 3 4 5 6 7 8 9 10 11 12 13 14 15 16 17 18 19 20 21 22 23 24 25 26 27 28 29 30 31 32 33 34 35 36 37 38 39 40 41 42 43 44 45 46 47 48 49 50
000
NZUS93 KARX 231110
HRRWXR

CURRENT HOURLY OBSERVATIONS ACROSS
MUCH OF THE UPPER MISSISSIPPI VALLEY
NATIONAL WEATHER SERVICE LA CROSSE WI
600 AM CDT SUN APR 23 2017


...SOUTHEAST MINNESOTA...


CITY           SKY/WX    TMP DP  RH WIND       PRES   REMARKS
ROCHESTER      CLEAR     42  36  79 SW8       30.10S
ROCHESTER/MAYO FAIR      50  35  55 SW7       30.10S
WINONA         CLOUDY    48  34  57 NW5       30.09S
AUSTIN         CLEAR     43  34  70 SW5       30.10S
ALBERT LEA     CLOUDY    45  36  70 SW6       30.10F
DODGE CENTER   CLEAR     43  36  75 SW9       30.09F
PRESTON        CLEAR     47  32  55 SW8       30.11S
OWATONNA       PTCLDY    45  36  70 S7        30.09S
FARIBAULT      PTCLDY    45  37  76 CALM      30.09S
$$

...ELSEWHERE IN MINNESOTA...


CITY           SKY/WX    TMP DP  RH WIND       PRES   REMARKS
MINNEAPOLIS    PTCLDY    51  36  56 W5        30.07R
INTNL FALLS    MOCLDY    29  17  61 N9        30.24R WCI  20
DULUTH         FLURRIES  35  33  92 N9        30.14S WCI  28
RED WING       CLEAR     41  36  81 CALM      30.06S
REDWOOD FALLS  CLEAR     44  36  73 W8        30.07F
MANKATO        PTCLDY    49  36  61 CALM      30.09S
WORTHINGTON    PTCLDY    48  33  56 SW13      30.10F
FAIRMONT       CLEAR     40  34  79 S6        30.11S
$$

...SOUTHWEST WISCONSIN...


CITY           SKY/WX    TMP DP  RH WIND       PRES   REMARKS
LA CROSSE      CLEAR     47  40  76 SE9       30.09F
PRAIRIE DU CHI CLEAR     38  32  79 CALM      30.14R
BOSCOBEL       CLEAR     34  32  92 CALM      30.14R
LONE ROCK      CLEAR     35  32  88 CALM      30.13S
PLATTEVILLE    CLEAR     42  33  69 SW3       30.14S
FORT MC COY    CLEAR     31  29  94 CALM      30.10F
CAMP DOUGLAS   CLEAR     45  30  55 W5        30.08S
MAUSTON-NEW LI SUNNY     54  31  41 SW9       30.08S
VIROQUA        FAIR      45  30  56 SW6       30.11R
WIS DELLS      CLEAR     40  30  68 CALM      30.11R
$$

...ELSEWHERE IN WISCONSIN...


CITY           SKY/WX    TMP DP  RH WIND       PRES   REMARKS
MILWAUKEE      CLEAR     47  24  40 SW3       30.11S
MADISON        PTCLDY    37  33  85 CALM      30.12R
GREEN BAY      CLEAR     45  35  68 SW6       30.06S
EAU CLAIRE     CLOUDY    47  38  71 W6        30.05S
BLACK RVR FLS  FAIR      33  33 100 CALM      30.08S
MEDFORD        CLOUDY    43  35  71 CALM      30.05R
WAUSAU         PTCLDY    48  32  53 VRB6      30.03S
WIS RAPIDS     CLEAR     41  34  76 SW6       30.07F
MARSHFIELD     CLOUDY    43  31  62 SW7       30.04F
RICE LAKE      CLOUDY    46  37  71 N6        30.07S
$$

...NORTHEAST IOWA...


CITY           SKY/WX    TMP DP  RH WIND       PRES   REMARKS
WATERLOO       CLEAR     35  32  88 CALM      30.14R
DUBUQUE        CLEAR     39  30  70 S5        30.14S
DECORAH        PTCLDY    45  32  61 CALM      30.11F
MASON CITY     CLEAR     45  33  63 SW7       30.14S
CHARLES CITY   CLEAR     45  32  61 W7        30.14S
OELWEIN        CLEAR     43  34  70 CALM      30.15R
$$

...ELSEWHERE IN IOWA...


CITY           SKY/WX    TMP DP  RH WIND       PRES   REMARKS
DES MOINES     CLEAR     45  30  55 SW3       30.15F
IOWA CITY      CLEAR     40  34  79 CALM      30.17S
FORT DODGE     CLEAR     39  30  70 CALM      30.15R
MARSHALLTOWN   CLEAR     38  34  85 S3        30.14S
CEDAR RAPIDS   CLEAR     36  30  79 CALM      30.14S
$$

...NORTHERN ILLINOIS...


CITY           SKY/WX    TMP DP  RH WIND       PRES   REMARKS
CHICAGO-OHARE  PTCLDY    39  29  67 W3        30.13S
CHICAGO-MIDWAY PTCLDY    41  32  70 CALM      30.15R
MOLINE         CLEAR     36  32  85 CALM      30.15S
ROCKFORD       CLEAR     37  33  85 S3        30.16S
PEORIA         CLEAR     36  32  85 CALM      30.15R
$$

NOTE: "FAIR" INDICATES FEW OR NO CLOUDS BELOW 12,000 FEET WITH NO
SIGNIFICANT WEATHER AND/OR OBSTRUCTIONS TO VISIBILITY. WIND
SPEEDS ARE IN MILES-PER-HOUR.




USA.gov is the U.S. government's official web portal to all federal, state and local government web resources and services.